Location: Ansost
(43.4332°N, 0.1109°E)
Time: 15:36:47
(UTC+00:00)

Daily predictions for brighter satellites

Satellite Brightness Start Highest point End
(mag) Time Altitude Azimuth Time Altitude Azimuth Time Altitude Azimuth
Cosmos 1607 4.4 19:51:40 10° NW 19:58:02 65° WSW 20:04:22 10° SSE
NOSS 2-3 (C) 3.9 19:55:37 10° SSW 19:59:38 45° ESE 20:04:13 10° NE
Cosmos 1666 3.9 19:56:47 10° NNW 20:00:29 45° W 20:04:09 10° SSW
Cosmos 2278 Rocket 3.2 19:56:26 10° SSE 20:01:01 26° ESE 20:05:37 10° NE
STARLINK-1206 3.6 19:57:13 10° SW 20:01:18 60° SE 20:05:23 10° ENE
Cosmos 1975 3.9 19:57:59 10° NNE 20:01:33 29° ENE 20:05:04 10° SE
STARLINK-1159 3.8 19:57:58 10° WNW 20:02:05 67° SW 20:06:11 10° SE
Cosmos 1624 Rocket 4.5 19:59:07 10° S 20:04:04 42° ESE 20:09:05 10° NNE
Cosmos 614 Rocket 4.0 19:59:34 10° NNW 20:04:38 65° ENE 20:09:41 10° SSE
Cosmos 2034 Rocket 4.0 19:58:50 10° N 20:05:04 78° E 20:11:12 10° SSE
Cosmos 1844 Rocket 3.3 20:00:24 10° SW 20:06:01 64° WNW 20:11:40 10° NNE
Cosmos 1140 Rocket 4.2 20:01:12 10° N 20:06:07 40° ENE 20:11:00 10° SE
STARLINK-1205 3.6 20:02:10 10° SW 20:06:16 66° SE 20:10:23 10° ENE
STARLINK-1171 3.9 20:02:59 10° WNW 20:07:05 61° SW 20:11:10 10° SE
Okean 1 3.4 20:03:58 10° S 20:07:56 59° E 20:11:56 10° NNE
H-2A R/B 3.5 20:04:06 10° SSW 20:08:43 38° W 20:13:29 10° NNW
Cosmos 44 Rocket 3.8 20:05:00 10° NW 20:09:48 61° WSW 20:14:43 10° SSE
STARLINK-1218 3.6 20:07:06 10° SW 20:11:13 72° SE 20:15:21 10° ENE
STARLINK-1155 4.0 20:07:58 10° WNW 20:12:01 56° SW 20:16:04 10° SE
Resurs 01 Rocket 1.9 20:09:28 10° SSE 20:13:48 56° ENE 20:18:10 10° N
STARLINK-1090 4.4 20:10:15 10° NW 20:14:15 45° NNE 20:18:14 10° E
Meteor 1-4 Rocket 3.3 20:12:00 10° SSE 20:15:02 30° E 20:18:06 10° NNE
STARLINK-1254 3.5 20:12:03 10° SW 20:16:11 78° SE 20:20:20 10° ENE
Cosmos 1782 Rocket 3.9 20:12:22 10° N 20:16:45 51° ENE 20:21:06 10° SSE
STARLINK-1166 4.2 20:12:58 10° WNW 20:17:00 51° SW 20:20:59 10° SE
Cosmos 1515 4.1 20:13:26 10° SSE 20:17:02 42° E 20:20:40 10° NNE
Sich 1 Rocket 4.5 20:12:58 10° N 20:17:12 35° ENE 20:21:21 10° SE
Cosmos 1816 Rocket 4.5 20:11:55 10° S 20:18:02 77° E 20:24:10 10° N
Cosmos 1371 Rocket 4.0 20:13:23 10° S 20:18:34 64° ESE 20:23:44 10° NNE
STARLINK-1089 4.3 20:15:13 10° NW 20:19:15 47° NNE 20:23:15 10° ESE
Abrixas rocket 3.5 20:17:11 10° W 20:19:58 37° NNW 20:22:45 10° ENE
STARLINK-1231 3.6 20:17:02 10° SW 20:21:10 85° SE 20:25:20 10° NE
STARLINK-1165 4.3 20:17:58 10° WNW 20:21:57 46° SW 20:25:46 11° SSE
Cosmos 1703 Rocket 3.5 20:17:41 10° S 20:22:00 83° E 20:26:21 10° N
ATLAS CENTAUR R/B 4.0 20:21:20 10° W 20:23:14 15° NW 20:24:38 10° N
STARLINK-1107 4.2 20:20:12 10° NW 20:24:15 51° NNE 20:28:17 10° ESE
ISS -1.6 20:21:32 10° NW 20:24:17 22° N 20:27:01 10° ENE
Meteor 1-18 Rocket 4.2 20:19:12 10° S 20:24:44 75° E 20:30:22 10° NNE
USA 186 4.2 20:24:01 10° WSW 20:25:11 13° W 20:26:23 10° WNW
STARLINK-1232 3.6 20:22:00 10° SW 20:26:09 89° NNW 20:30:18 10° NE
STARLINK-1169 4.4 20:22:58 10° WNW 20:26:54 42° SW 20:30:33 11° SSE
STARLINK-1066 4.1 20:25:12 10° NW 20:29:16 54° NNE 20:33:06 11° ESE
Terra 3.9 20:27:04 10° E 20:29:26 14° ENE 20:31:49 10° NNE
Okean 2 Rocket 4.1 20:27:07 10° NNE 20:31:02 29° ENE 20:34:10 14° SE
STARLINK-1208 3.7 20:26:59 10° WSW 20:31:08 82° NNW 20:35:17 10° NE
STARLINK-1081 4.0 20:30:09 10° NW 20:34:15 58° NNE 20:37:52 13° ESE
Spot 2 Rocket 3.9 20:30:33 12° SE 20:34:57 47° ENE 20:39:47 10° N
Cosmos 1908 Rocket 4.3 20:31:04 10° NNW 20:35:24 55° W 20:39:45 10° S
Lacrosse 5 3.2 20:31:24 10° NW 20:35:58 32° NNE 20:40:31 10° E
STARLINK-1271 3.8 20:31:58 10° WSW 20:36:06 76° NNW 20:40:15 10° NE
STARLINK-1230 4.5 20:35:05 10° SSW 20:38:38 28° SE 20:42:11 10° ENE
COSMOS 2406 3.3 20:33:23 10° NNW 20:39:10 70° ENE 20:44:03 15° SE
STARLINK-1070 3.9 20:35:06 10° NW 20:39:14 63° NNE 20:42:38 14° ESE
CREW DRAGON DEMO-1 DEB 3.4 20:37:06 10° WNW 20:40:06 46° SW 20:42:05 18° SSE
MetOp-B 4.2 20:35:46 12° SSE 20:40:46 66° ENE 20:46:06 10° N
Cosmos 1544 3.0 20:37:17 10° N 20:40:56 77° E 20:44:03 13° SSE
STARLINK-1154 3.9 20:36:58 10° WSW 20:41:06 71° NNW 20:45:14 10° NE
Meteor 2-4 Rocket 3.8 20:36:24 10° S 20:41:36 53° E 20:46:48 10° NNE
Cosmos 676 Rocket 4.3 20:36:57 10° NNW 20:42:07 55° ENE 20:46:14 16° SE
STARLINK-1087 4.0 20:41:05 10° W 20:42:24 16° SW 20:43:08 13° SSW
Cosmos 371 Rocket 4.2 20:38:43 12° SSE 20:42:28 30° E 20:46:40 10° NE
Cosmos 1023 Rocket 4.5 20:38:07 10° NNW 20:43:21 86° ENE 20:47:56 14° SSE
STARLINK-1243 4.3 20:39:55 10° SSW 20:43:34 30° SE 20:47:13 10° ENE
SAR-Lupe-2 4.1 20:40:15 10° NNE 20:43:40 40° E 20:46:22 15° SSE
STARLINK-1069 3.8 20:40:04 10° NW 20:44:12 68° NNE 20:47:25 16° ESE
Cosmos 1634 Rocket 4.1 20:38:54 10° N 20:45:14 72° E 20:51:11 12° SSE
Cosmos 389 Rocket 4.2 20:42:33 10° SW 20:45:43 34° WNW 20:48:57 10° N
STARLINK-1197 4.1 20:41:57 10° WSW 20:46:04 65° NNW 20:50:12 10° NE
SL-4 R/B 3.3 20:44:03 10° N 20:46:22 18° NE 20:48:05 12° E
Iridium 51 4.2 20:42:26 10° S 20:46:33 87° E 20:50:21 10° N
Cosmos 2056 Rocket 3.5 20:41:52 10° SSW 20:46:58 85° WNW 20:52:07 10° NNE
STARLINK-1236 4.2 20:44:48 10° SSW 20:48:32 33° SE 20:52:17 10° ENE
STARLINK-1085 3.7 20:45:04 10° NW 20:49:13 73° NNE 20:52:13 18° ESE
STARLINK-1198 4.2 20:46:59 10° WSW 20:51:04 61° NNW 20:55:11 10° NE
STARLINK-1086 3.6 20:50:02 10° NW 20:54:11 79° NE 20:56:59 20° ESE
Cosmos 1356 4.4 20:52:08 10° NNW 20:55:26 44° W 20:58:41 10° SSW
Crew Dragon 2.7 20:54:37 10° NNW 20:55:59 15° NNE 20:57:24 10° ENE
STARLINK-1199 4.3 20:51:58 10° WSW 20:56:02 56° NNW 21:00:08 10° NE
STARLINK-1269 4.0 20:54:32 10° SSW 20:58:25 40° SE 21:02:18 10° ENE
STARLINK-1095 3.6 20:55:02 10° NW 20:59:11 85° NE 21:01:47 22° ESE
IGS 5A 3.5 20:57:51 20° SSE 21:00:37 65° ENE 21:04:44 10° N
STARLINK-1210 4.5 20:57:00 10° WSW 21:01:03 53° NNW 21:05:07 10° NE
STARLINK-1200 3.9 20:59:28 10° SSW 21:03:23 44° SE 21:07:20 10° ENE
CARTOSAT-1 4.3 21:01:34 21° SE 21:03:54 37° ENE 21:07:55 10° N
STARLINK-1077 3.6 21:00:00 10° NW 21:04:09 88° SW 21:06:34 24° SE
BREEZE M DEB (TANK) 3.0 20:58:27 10° SW 21:05:58 65° SSE 21:08:42 10° ENE
Okean 3 3.4 21:02:15 12° S 21:06:15 83° E 21:10:35 10° N
STARLINK-1192 3.8 21:04:22 10° SSW 21:08:21 48° SE 21:12:21 10° ENE
STARLINK-1075 3.6 21:04:58 10° NW 21:09:08 82° SW 21:11:20 27° SE
Cosmos 2082 Rocket 2.6 21:06:59 10° NNW 21:12:35 51° ENE 21:16:03 22° SE
SPOT 5 3.5 21:10:01 22° SE 21:13:01 48° ENE 21:18:06 10° N
STARLINK-1244 3.7 21:09:17 10° SW 21:13:18 53° SE 21:17:21 10° ENE
STARLINK-1093 3.6 21:09:57 10° WNW 21:14:06 75° SW 21:16:08 29° SE
Cosmos 1461 4.1 21:15:49 23° ESE 21:15:49 23° ESE 21:19:07 10° ENE
Cosmos 1833 Rocket 2.6 21:11:18 10° NNW 21:16:57 87° ENE 21:20:27 24° SSE
Cosmos 1452 Rocket 3.5 21:12:48 11° S 21:17:45 65° ESE 21:23:00 10° NNE
Aureole 1 Rocket 4.3 21:14:06 10° NW 21:18:14 43° WSW 21:22:40 14° S
STARLINK-1138 3.6 21:14:12 10° SW 21:18:16 58° SE 21:22:20 10° ENE
STARLINK-1074 3.6 21:14:57 10° WNW 21:19:04 69° SW 21:20:54 31° SE
GENESIS II 4.3 21:17:14 10° NW 21:21:15 71° WSW 21:22:58 32° SSE
Landsat 7 3.9 21:18:39 21° S 21:21:50 76° WSW 21:26:37 10° NNW
Cosmos 1420 Rocket 4.1 21:17:16 10° SSW 21:22:28 80° WNW 21:27:41 10° NNE
STARLINK-1143 3.5 21:19:08 10° SW 21:23:13 63° SE 21:27:20 10° ENE
Aureole 2 Rocket 4.1 21:24:16 18° ENE 21:24:16 18° ENE 21:25:37 10° NE
Cosmos 1300 Rocket 3.5 21:19:27 10° N 21:23:55 88° WSW 21:26:23 26° S
Cosmos 2369 Rocket 4.2 21:26:15 11° E 21:26:15 11° E 21:27:08 10° E
Cosmos 304 Rocket 4.4 21:24:48 29° SE 21:26:18 36° ESE 21:30:40 10° NE
STARLINK-1203 3.5 21:22:43 10° SW 21:26:53 69° SE 21:31:04 10° ENE
STARLINK-1241 3.5 21:24:05 10° SW 21:28:12 70° SE 21:32:20 10° ENE
STARLINK-1088 3.8 21:24:56 10° WNW 21:29:00 58° SW 21:30:28 35° SSE
Cosmos 1943 Rocket 3.8 21:28:55 16° E 21:29:02 16° E 21:32:22 10° ENE
STARLINK-1239 3.5 21:29:02 10° SW 21:33:10 76° SE 21:37:19 10° ENE
Intercosmos 24 3.9 21:29:38 10° NNW 21:33:16 65° W 21:34:51 30° SSW
Cosmos 1066 Rocket 4.4 21:31:09 28° SSE 21:33:43 50° E 21:38:54 10° NNE
STARLINK-1115 3.9 21:29:55 10° WNW 21:33:57 52° SW 21:35:14 37° SSE
ERBS 3.3 21:31:18 10° WSW 21:34:31 48° NW 21:37:44 10° NE
Cosmos 332 Rocket 3.7 21:32:39 21° S 21:35:54 71° ESE 21:40:48 10° NNE
STARLINK-1126 4.4 21:32:14 10° NW 21:36:16 46° NNE 21:38:31 23° E
STARLINK-1240 3.5 21:34:01 10° SW 21:38:09 83° SE 21:42:18 10° NE
Cosmos 1674 Rocket 3.4 21:36:52 32° S 21:38:49 75° E 21:43:12 10° NNE
STARLINK-1076 4.1 21:34:55 10° WNW 21:38:55 48° SW 21:40:01 37° S
STARLINK-1082 4.3 21:37:10 10° NW 21:41:12 49° NNE 21:43:15 26° E
USA 245 4.4 21:40:16 20° SSW 21:41:59 29° WSW 21:44:44 10° NW
STARLINK-1216 3.5 21:38:58 10° SW 21:43:07 89° SE 21:47:16 10° NE
Meteor 1-15 Rocket 4.4 21:37:26 10° N 21:43:22 68° ENE 21:46:14 31° SSE
STARLINK-1092 4.2 21:39:54 10° WNW 21:43:51 44° SW 21:44:47 37° S
SPOT 1/Viking Rocket 3.9 21:40:42 23° S 21:43:51 58° W 21:48:58 10° NNW
NOSS 2-2 (E) 4.3 21:45:11 27° E 21:45:11 27° E 21:47:35 10° NE
Cosmos 2278 Rocket 3.1 21:39:17 10° SW 21:44:46 49° WNW 21:50:18 10° NNE
Cosmos 1378 Rocket 3.5 21:43:25 38° SSE 21:44:58 66° E 21:49:21 10° NNE
STARLINK-1100 4.2 21:42:08 10° NW 21:46:13 53° NNE 21:48:03 29° E
NOSS 8 (E) 4.0 21:47:09 59° SSW 21:47:40 82° SE 21:50:42 10° NE
STARLINK-1237 3.6 21:43:57 10° SW 21:48:05 85° NW 21:52:15 10° NE
STARLINK-1080 4.3 21:44:58 10° WNW 21:48:52 40° SW 21:49:37 36° SSW
Resurs 01 Rocket 4.2 21:48:07 10° SW 21:50:37 15° W 21:53:09 10° NW
STARLINK-1083 4.1 21:47:05 10° NW 21:51:11 57° NNE 21:52:48 33° E
Cosmos 1741 Rocket 3.9 21:47:18 10° NNW 21:52:33 84° ENE 21:54:36 38° SSE
STARLINK-1202 3.7 21:48:57 10° WSW 21:53:05 78° NNW 21:57:15 10° NE
STARLINK-1090 4.4 21:49:58 10° WNW 21:53:47 36° SW 21:54:22 34° SSW
Cosmos 1437 Rocket 3.0 21:53:11 32° SSW 21:54:45 62° WNW 21:58:32 10° N
Abrixas rocket 3.7 21:53:14 10° WNW 21:55:55 30° N 21:57:11 21° NE
STARLINK-1125 3.9 21:52:04 10° NW 21:56:11 61° NNE 21:57:36 37° E
Okean 2 4.4 21:56:17 31° E 21:56:21 31° E 22:00:01 10° NNE
Cosmos 1975 Rocket 4.0 21:57:35 30° E 21:57:53 31° E 22:01:47 10° NNE
SeaSat 1 2.8 21:56:12 10° NE 22:00:52 41° ESE 22:01:28 39° SE
STARLINK-1109 3.8 21:57:03 10° NW 22:01:10 66° NNE 22:02:22 42° E
ISS -3.6 21:58:09 10° NW 22:01:31 67° NNE 22:01:47 63° ENE
ERS-1 Rocket 3.5 22:00:14 28° SSW 22:02:37 52° W 22:07:33 10° NNW
STARLINK-1246 3.9 21:58:55 10° WSW 22:03:02 67° NNW 22:07:11 10° NE
Nadezhda 4 Rocket 3.9 22:00:37 28° S 22:04:04 89° ESE 22:10:15 10° N
Cosmos 1850 Rocket 4.1 21:59:59 10° NNW 22:05:20 73° WSW 22:07:19 39° S
STARLINK-1091 3.7 22:02:00 10° NW 22:06:09 71° NNE 22:07:09 48° E
Terra 1.8 22:04:56 41° S 22:06:33 76° WSW 22:11:20 10° NNW
NOSS 2-2 (C) 4.1 22:08:29 33° ENE 22:08:29 33° ENE 22:11:01 10° NE
STARLINK-1224 4.0 22:03:56 10° WSW 22:08:02 62° NNW 22:12:09 10° NE
ATLAS 2AS CENTAUR R/B 4.3 22:08:00 20° ESE 22:08:31 20° ESE 22:13:56 10° ENE
Cosmos 1110 Rocket 3.9 22:08:58 39° S 22:10:52 75° ESE 22:16:04 10° NNE
STARLINK-1072 3.6 22:06:58 10° NW 22:11:08 77° NE 22:11:55 56° ESE
STARLINK-1225 4.2 22:08:56 10° WSW 22:13:01 58° NNW 22:17:07 10° NE
BREEZE-M DEB (TANK) 4.5 22:11:40 10° WNW 22:15:40 36° N 22:19:02 10° ENE
STARLINK-1096 3.5 22:11:58 10° NW 22:16:08 83° NE 22:16:44 64° ESE
ATLAS 3B CENTAUR R/B 4.4 22:11:46 10° SW 22:15:14 16° SSW 22:15:14 16° SSW
STARLINK-1230 4.3 22:13:57 10° WSW 22:18:01 54° NNW 22:22:05 10° NE
BREEZE-M DEB (TANK) 4.0 22:00:21 10° WSW 22:18:17 82° NNW 22:22:33 10° ENE
Lacrosse 5 1.9 22:14:14 10° NW 22:19:14 62° SW 22:20:15 50° S
Cosmos 1766 3.2 22:15:26 10° N 22:19:25 68° E 22:19:37 66° ESE
SL-4 R/B 3.1 22:16:53 10° NW 22:18:54 23° W 22:18:54 23° W
STARLINK-1079 3.4 22:16:57 10° NW 22:21:07 89° NE 22:21:31 72° ESE
Okean 1 Rocket 3.4 22:17:07 10° NNW 22:21:32 59° W 22:22:37 45° SSW
STARLINK-1243 4.5 22:18:58 10° WSW 22:23:00 50° NNW 22:27:03 10° NE
EXPRESS MD2 3.9 22:20:32 10° WSW 22:24:10 77° NNW 22:31:40 10° ENE
USA 238 DEB 4.5 22:17:21 10° NNW 22:24:19 50° NE 22:28:52 23° ESE
USA 238 4.5 22:17:26 10° NNW 22:24:24 50° NE 22:28:59 23° ESE
STARLINK-1116 3.4 22:21:55 10° NW 22:26:05 84° SW 22:26:17 79° SSE
Cosmos 1733 3.3 22:22:50 10° N 22:26:32 62° ENE 22:26:32 62° ENE
Cosmos 1455 Rocket 3.4 22:28:06 10° N 22:32:21 50° ENE 22:32:37 49° E
Cosmos 1331 Rocket 4.0 22:30:41 39° SSW 22:32:37 79° WNW 22:37:49 10° NNE
Cosmos 1025 Rocket 4.5 22:34:49 24° ENE 22:34:49 24° ENE 22:37:51 10° NE
STARLINK-1094 3.6 22:31:55 10° WNW 22:35:52 70° WSW 22:35:52 70° WSW
Cosmos 1302 Rocket 4.0 22:37:48 55° SE 22:38:35 62° ESE 22:43:49 10° NNE
STARLINK-1117 3.8 22:36:54 10° WNW 22:40:38 61° WSW 22:40:38 61° WSW
Cosmos 2297 4.2 22:39:18 20° SW 22:43:11 56° WNW 22:48:50 10° NNE
Cosmos 1092 Rocket 4.0 22:41:42 37° SSW 22:44:16 72° W 22:50:26 10° N
Cosmos 1758 4.4 22:40:49 10° N 22:44:24 34° ENE 22:44:24 34° ENE
STARLINK-1078 4.0 22:41:54 10° WNW 22:45:26 53° WSW 22:45:26 53° WSW
Meteor 1-22 Rocket 4.3 22:40:31 10° NNW 22:46:29 78° W 22:48:05 50° S
Meteor 2-13 Rocket 4.4 22:45:42 48° S 22:47:31 78° E 22:53:42 10° N
STARLINK-1108 4.2 22:46:53 10° WNW 22:50:12 47° W 22:50:12 47° W
Aureole 3 Rocket 4.2 22:46:44 10° N 22:52:25 68° E 22:54:52 43° SSE
Cosmos 1461 4.3 22:52:06 19° WSW 22:54:36 37° NW 22:58:40 10° NNE
STARLINK-1071 4.4 22:51:53 10° WNW 22:54:59 41° W 22:54:59 41° W
Cosmos 2082 Rocket 3.7 22:51:46 10° NW 22:56:18 25° WSW 22:57:54 22° SW
Cosmos 1536 Rocket 4.4 22:57:54 37° ENE 22:57:54 37° ENE 23:01:31 10° NNE
STARLINK-1106 4.4 22:54:08 10° NW 22:58:10 48° NNE 22:58:58 42° ENE
ATLAS 5 CENTAUR R/B 4.0 23:00:58 12° NE 23:00:58 12° NE 23:01:12 10° NE
EO 1 Del DPAF 3.5 22:55:20 10° N 22:58:54 64° NW 22:58:54 64° NW
SL-27 R/B 3.4 22:56:39 10° N 22:59:33 45° NNE 22:59:33 45° NNE
ALOS 2 3.2 23:01:01 45° E 23:01:15 46° ENE 23:05:28 10° N
Cosmos 1470 3.2 22:57:32 10° N 23:00:55 55° NE 23:00:55 55° NE
STARLINK-1112 4.2 22:59:08 10° NW 23:03:11 52° NNE 23:03:46 47° ENE
Thor Agena Rocket 3.8 22:58:28 10° N 23:03:45 68° WNW 23:05:15 46° SW
USA 215 3.3 23:03:20 33° ESE 23:06:35 79° NE 23:13:09 10° NW
STARLINK-1128 4.1 23:04:06 10° NW 23:08:11 55° NNE 23:08:33 53° NE
Cosmos 1544 Rocket 3.4 23:04:05 10° N 23:08:21 86° N 23:08:21 86° N
Cosmos 1992 Rocket 4.5 23:08:31 44° ESE 23:08:31 44° ESE 23:13:23 10° NNE
Cosmos 2369 Rocket 2.1 23:07:59 60° S 23:09:02 80° ESE 23:14:44 10° NNE
Cosmos 1943 Rocket 2.3 23:10:23 45° SW 23:12:05 72° WNW 23:17:42 10° NNE
STARLINK-1113 4.0 23:09:03 10° NW 23:13:10 60° NNE 23:13:19 59° NE
SL-8 R/B 3.8 23:09:08 10° WNW 23:13:57 72° NNE 23:15:05 51° E
S3M 4.0 23:11:35 10° N 23:17:43 69° E 23:19:11 52° SE
STARLINK-1119 3.9 23:14:02 10° NW 23:18:06 64° NNE 23:18:06 64° NNE
Cosmos 1842 4.4 23:18:55 36° WNW 23:18:58 36° WNW 23:22:37 10° N
Cosmos 1655 Rocket 3.9 23:20:26 55° SSE 23:21:47 73° E 23:28:02 10° NNE
NOSS 3-2 (C) 4.2 23:14:36 10° NNW 23:22:10 71° NE 23:26:35 31° SE
STARLINK-1114 3.9 23:19:00 10° NW 23:22:52 67° N 23:22:52 67° N
ATLAS CENTAUR R/B 3.5 23:25:24 17° ENE 23:25:24 17° ENE 23:26:56 10° ENE
Cosmos 1726 3.3 23:22:51 10° N 23:25:42 38° NE 23:25:42 38° NE
STARLINK-1130 (DARKSAT) 3.9 23:23:59 10° NW 23:27:40 65° NNW 23:27:40 65° NNW
NOSS 3-4 (A) 3.5 23:29:50 52° SE 23:30:11 53° ESE 23:36:13 10° NE
NOSS 3-4 (C) 3.5 23:29:56 52° SE 23:30:17 52° ESE 23:36:19 10° NE
ATLAS 3B R/B 3.8 23:26:29 10° NNW 23:32:45 38° NE 23:38:47 12° ESE
STARLINK-1084 4.0 23:28:56 10° NW 23:32:26 61° NW 23:32:26 61° NW
Cosmos 1553 Rocket 4.1 23:27:55 10° NNW 23:34:11 67° W 23:35:37 52° SSW
CENTAUR R/B 3.3 23:26:51 10° NW 23:34:58 74° NE 23:39:47 30° SE
STARLINK-1098 4.1 23:33:56 10° NW 23:37:14 55° NW 23:37:14 55° NW
SeaSat 1 4.0 23:33:58 10° N 23:38:14 30° NW 23:41:13 17° WSW
Cosmos 292 Rocket 4.0 23:39:18 57° W 23:39:52 61° WNW 23:44:41 10° NNE
STARLINK-1123 4.3 23:38:55 10° NW 23:42:01 49° WNW 23:42:01 49° WNW
Cosmos 1242 Rocket 4.2 23:45:39 28° WNW 23:45:39 28° WNW 23:48:33 10° NNW
YAOGAN 11 4.3 23:46:54 60° ENE 23:46:54 60° ENE 23:51:10 10° N
Cosmos 2263 4.2 23:46:07 54° SW 23:47:20 72° WNW 23:52:57 10° NNE
STARLINK-1097 4.5 23:43:53 10° WNW 23:46:46 44° WNW 23:46:46 44° WNW
Helios 1A 3.1 23:52:18 73° NNW 23:52:18 73° NNW 23:56:08 10° NNW
Cosmos 1656 Rocket 3.5 23:51:32 67° SSW 23:52:21 89° ESE 23:57:59 10° NNE
Cosmos 1503 Rocket 3.9 23:48:23 10° NNW 23:53:42 88° WSW 23:54:12 74° SSE
Cosmos 1271 Rocket 4.0 23:55:25 33° WNW 23:55:25 33° WNW 23:58:40 10° N
